Location: Gniazdowice
(50.2124°N, 20.2673°E)
Time: 23:00:44
(UTC+00:00)

IDEFIX/ARIANE 42P - Pass Details

Date: 23 May 2024
Orbit: 783 x 799 km, 98.5° (Epoch: 22 June)

Event Time Altitude Azimuth Distance (km) Brightness Sun altitude
Rises 01:16:36 0° 10° (N) 3,318 7.0 -10.7°
Reaches altitude 10° 01:19:01 10° 5° (N) 2,385 6.0 -10.5°
Maximum altitude 01:24:00 45° 294° (WNW) 1,077 3.2 -10.0°
Enters shadow 01:28:35 12° 224° (SW) 2,223 4.2 -9.5°
